THORAD AGENA D DEB, 20360

Orbit data source: Space-Track

THORAD AGENA D DEB, 20360 is space debris in SSO originally from a launch on Wed, 08 Apr 1970 UTC launched from the Air Force Western Test Range (AFWTR). Debris objects in space refer to the collection of defunct objects orbiting the Earth. Examples of debris include non-operational satellites, rocket bodies, and fragments generated from explosions, collisions, or faulty payload assembly.

Loading next visibility...
Identifier
20360, 1970-025QF
Orbit
SSO
Country
Flag of USUS
Related business
Manufacturer
Unknown
Mission
Spacecraft
Bus & Motor
Unknown
Mass
Unknown
Launch date (UTC)
1970-04-08 (56 years ago)
Launch vehicle
Unknown
Launch site
Air Force Western Test Range (AFWTR)
Object type
Payload
Rocket body
Debris
Shape & HBR
Unknown shape, 0.1 m
Radar Cross Section
Small (<0.1 m²)

Expand to show TLE details & history
Last TLE update: 11 hours ago

TLE from 11 hours ago
0 THORAD AGENA D DEB
1 20360U 70025QF  26036.29962139  .00016101  00000-0  82926-2 0  9991
2 20360 100.4455 331.5843 0019817 237.5738 274.4592 14.15129472813810
Epoch: 2026-02-05T07:11Z
TLE epoch observation values (Epoch: 2026-02-05T07:11:27.288Z)
Latitude
27.72867°
Longitude
-86.20165°
Altitude
844.119 km
Speed
7.434 km/s
True Right ascension
10h 28m 27s
True Declination
27° 35' 20"
Sunlit
Object was in full shadow at epoch
Visualization orbit readout
Latitude
Unknown
Longitude
Unknown
Altitude
Unknown
Speed
Unknown
Apparent Right ascension
Unknown
Apparent Declination
Unknown
Sunlit
N/A
Visualization observer readout
Local Sidereal Time
19:47:10
Azimuth
Unknown
Elevation
Unknown
Doppler factor
Unknown
Orbital elements
Apogee altitude
853.43 km
Perigee altitude
824.825 km
Semi-major axis
7,217.265 km
Eccentricity
0.00198
Inclination
100.4455°
RAAN
331.5843°
Arg. of periapsis
237.5738°
True anomaly
274.23276°
Mean anomaly
274.4592°
Eccentric anomaly
274.34598°
Mean motion
3.53984 °/min
Orbital period
101.7 mins
BSTAR
0.0082926

Documentation

Showing up to 5 results
|